Regional Weather Roundup
Issued by NWS

Home | Current Version | Previous Version | Text Only | Print | Product List | Glossary Off
Versions: 1 2 3 4 5 6 7 8 9 10 11 12 13 14 15 16 17 18 19 20 21 22 23 24 25 26 27 28 29 30 31 32 33 34 35 36 37 38 39 40 41 42 43 44 45 46 47 48 49 50

000
ASUS43 KOAX 271202
RWRNE

WEATHER ROUNDUP FOR NEBRASKA
NATIONAL WEATHER SERVICE OMAHA NE
700 AM CDT FRI MAY 27 2016

NOTES: SATELLITE DATA IS BEING USED TO AUGMENT CLOUD COVER ABOVE
       12000 FEET.
       "FAIR" INDICATES FEW OR NO CLOUDS BELOW 12,000 FEET WITH NO
       SIGNIFICANT WEATHER AND/OR OBSTRUCTIONS TO VISIBILITY.

  * THESE STATIONS DO NOT REPORT WEATHER SUCH AS RAIN...SNOW OR FOG.

NEZ001>004-019>022-054>056-271300-
NEBRASKA PANHANDLE

CITY           SKY/WX    TMP DP  RH WIND       PRES   REMARKS
SCOTTSBLUFF    CLOUDY    51  47  86 N12       29.83S
6HR MIN TEMP:  50; 6HR MAX TEMP:  53; 6HR PCP:  0.01;

ALLIANCE       CLOUDY    51  48  89 N7        29.80F
6HR MIN TEMP:  49; 6HR MAX TEMP:  53; 6HR PCP: TRACE;

CHADRON        PTCLDY    46  44  93 W3        29.84S
6HR MIN TEMP:  45; 6HR MAX TEMP:  50;

SIDNEY         RAIN      50  48  93 N14       29.80R FOG
6HR MIN TEMP:  49; 6HR MAX TEMP:  51; 6HR PCP:  0.30;

$$

NEZ057>060-069>072-079>082-271300-
SOUTHWEST NEBRASKA

CITY           SKY/WX    TMP DP  RH WIND       PRES   REMARKS
NORTH PLATTE   CLOUDY    56  55  97 CALM      29.76R
6HR MIN TEMP:  55; 6HR MAX TEMP:  57; 6HR PCP:  0.03;

IMPERIAL       CLOUDY    53  51  93 NE5       29.75R
6HR MIN TEMP:  51; 6HR MAX TEMP:  54;

LEXINGTON      CLOUDY    57  54  92 CALM      29.74R
MCCOOK         CLOUDY    56  54  93 N3        29.74R
6HR MIN TEMP:  52; 6HR MAX TEMP:  56;

$$

NEZ005>010-023>029-035>040-094-271300-
NORTH CENTRAL NEBRASKA

CITY           SKY/WX    TMP DP  RH WIND       PRES   REMARKS
VALENTINE      CLOUDY    55  52  89 SE5       29.76R
6HR MIN TEMP:  55; 6HR MAX TEMP:  57; 6HR PCP:  0.14;

AINSWORTH      DRIZZLE   56  52  86 NW3       29.76R
BROKEN BOW     CLOUDY    57  54  89 CALM      29.75R
6HR MIN TEMP:  55; 6HR MAX TEMP:  61; 6HR PCP:  0.06;

ORD            CLEAR     57  55  93 W5        29.73R
6HR MIN TEMP:  56; 6HR MAX TEMP:  61; 6HR PCP:  0.03;

$$

NEZ041-046>049-061>064-073>077-083>087-271300-
SOUTH CENTRAL NEBRASKA

CITY           SKY/WX    TMP DP  RH WIND       PRES   REMARKS
GRAND ISLAND   MOCLDY    58  57  97 N3        29.74R
6HR MIN TEMP:  58; 6HR MAX TEMP:  63; 6HR PCP:  0.14;

HASTINGS       CLOUDY    57  56  96 N5        29.73R
6HR MIN TEMP:  54; 6HR MAX TEMP:  59; 6HR PCP:  0.01;

KEARNEY *      CLOUDY    57  54  88 NE7       29.74R
YORK           CLOUDY    57  55  94 N8        29.73R
$$

NEZ011>018-030>034-042>045-271300-
NORTHEAST NEBRASKA

CITY           SKY/WX    TMP DP  RH WIND       PRES   REMARKS
NORFOLK        CLOUDY    59  57  93 SE10      29.75R
6HR MIN TEMP:  58; 6HR MAX TEMP:  60; 6HR PCP: TRACE;

ALBION         PTCLDY    57  54  89 CALM      29.75R
BLAIR          PTSUNNY   61  59  94 NE5       29.75R
FREMONT        CLOUDY    61  60  94 E5        29.76R
TEKAMAH        CLOUDY    62  58  86 E3        29.74R
6HR MIN TEMP:  61; 6HR MAX TEMP:  64;

$$

NEZ050>053-065>068-078-088>093-271300-
SOUTHEAST NEBRASKA

CITY           SKY/WX    TMP DP  RH WIND       PRES   REMARKS
LINCOLN        MOCLDY    60  58  92 NE8       29.73R
6HR MIN TEMP:  60; 6HR MAX TEMP:  64; 6HR PCP: TRACE;

OMAHA EPPLEY   PTSUNNY   63  59  87 N6        29.74R
6HR MIN TEMP:  62; 6HR MAX TEMP:  65;

FALLS CITY     MOSUNNY   62  60  93 SE7       29.66R
6HR MIN TEMP:  61; 6HR MAX TEMP:  63; 6HR PCP:  0.40;

$$

NEZ044-045-051>053-067-271300-
OMAHA AREA

CITY           SKY/WX    TMP DP  RH WIND       PRES   REMARKS
OMAHA EPPLEY   PTSUNNY   63  59  87 N6        29.74R
6HR MIN TEMP:  62; 6HR MAX TEMP:  65;

BLAIR          PTSUNNY   61  59  94 NE5       29.75R
FREMONT        CLOUDY    61  60  94 E5        29.76R
OFFUTT AFB     CLOUDY    61  60  97 N5        29.72R
$$




USA.gov is the U.S. government's official web portal to all federal, state and local government web resources and services.